Eveleth, MN

1:07 AM CST on January 20, 2017 (GMT -0600)
Eveleth-Virginia Municipal

Weather History for KEVM - January, 2013

Change the Weather History Date:

Sunday, January 6, 2013

  Actual Average Record
Temperature  
Mean Temperature 14 °F -  
Max Temperature 21 °F 17 °F 41 °F (2008)
Min Temperature 6 °F 0 °F -32 °F (2005)
Degree Days  
Heating Degree Days 52    
Moisture  
Dew Point 9 °F    
Average Humidity 78    
Maximum Humidity 92    
Minimum Humidity 58    
Precipitation  
Precipitation 0.00 in - - ()
Sea Level Pressure  
Sea Level Pressure 30.04 in    
Wind  
Wind Speed 5 mph (WNW)    
Max Wind Speed 10 mph    
Max Gust Speed 16 mph    
Visibility 9 miles    
Events Snow    
Averages and records for this station are not official NWS values.
T = Trace of Precipitation, MM = Missing Value Source: NWS Daily Summary

Daily Weather History Graph

Daily Weather History Graph

Search for Another Location

Airport or City:

Trip Planner

Search our weather history database for the weather conditions in past years. The results will help you decide how hot, cold, wet, or windy it might be!

Date:

Astronomy

Jan. 06, 2013 Rise Set
Actual Time 7:56 AM CST 4:35 PM CST
Civil Twilight 7:21 AM CST 5:10 PM CST
Nautical Twilight 6:42 AM CST 5:49 PM CST
Astronomical Twilight 6:05 AM CST 6:26 PM CST
Moon 2:02 AM CST (1/6) 12:10 PM CST (1/6)
Length of Visible Light 9h 49m
Length of Day
8h 38m
Waning Crescent, 33% of the Moon is Illuminated
Jan 6
Waning Crescent
Jan 11
New
Jan 18
First Quarter
Jan 26
Full
Feb 3
Last Quarter

Hourly Weather History & Observations

Time (CST) Temp. Windchill Dew Point Humidity Pressure Visibility Wind Dir Wind Speed Gust Speed Precip Events Conditions
12:09 AM 21.2 °F 12.6 °F 17.6 °F 86% 29.95 in 10.0 mi NW 6.9 mph - N/A   Overcast
12:29 AM 21.2 °F 11.7 °F 17.6 °F 86% 29.96 in 10.0 mi NW 8.1 mph - N/A   Overcast
12:50 AM 19.4 °F 10.4 °F 15.8 °F 86% 29.96 in 10.0 mi NW 6.9 mph - N/A   Overcast
1:10 AM 19.4 °F 14.3 °F 15.8 °F 86% 29.96 in 10.0 mi NW 3.5 mph - N/A   Overcast
1:29 AM 19.4 °F 10.4 °F 15.8 °F 86% 29.97 in 10.0 mi NNW 6.9 mph - N/A   Overcast
1:49 AM 19.4 °F 11.5 °F 14.0 °F 80% 29.97 in 10.0 mi NW 5.8 mph - N/A   Overcast
2:09 AM 17.6 °F 10.7 °F 14.0 °F 86% 29.98 in 10.0 mi WNW 4.6 mph - N/A   Overcast
2:29 AM 17.6 °F 8.2 °F 14.0 °F 86% 29.99 in 10.0 mi WNW 6.9 mph - N/A   Overcast
2:50 AM 17.6 °F 8.2 °F 14.0 °F 86% 29.99 in 10.0 mi WNW 6.9 mph - N/A   Overcast
3:09 AM 17.6 °F 9.3 °F 14.0 °F 86% 29.99 in 10.0 mi NW 5.8 mph - N/A   Overcast
3:29 AM 17.6 °F 8.2 °F 14.0 °F 86% 30.00 in 10.0 mi NW 6.9 mph - N/A   Overcast
3:50 AM 17.6 °F 7.3 °F 14.0 °F 86% 30.02 in 10.0 mi NW 8.1 mph - N/A   Overcast
4:10 AM 17.6 °F 6.4 °F 14.0 °F 86% 30.02 in 10.0 mi NW 9.2 mph 16.1 mph N/A   Overcast
4:29 AM 17.6 °F 10.7 °F 14.0 °F 86% 30.01 in 5.0 mi NW 4.6 mph - N/A Snow Light Snow
4:50 AM 15.8 °F 6.1 °F 12.2 °F 86% 30.01 in 10.0 mi NNW 6.9 mph - N/A Snow Light Snow
5:29 AM 15.8 °F 6.1 °F 12.2 °F 86% 30.03 in 7.0 mi NNW 6.9 mph - N/A Snow Light Snow
5:49 AM 15.8 °F 3.4 °F 12.2 °F 86% 30.05 in 10.0 mi NNW 10.4 mph - N/A   Overcast
6:30 AM 15.8 °F 6.1 °F 12.2 °F 86% 30.07 in 4.0 mi NW 6.9 mph - N/A Snow Light Snow
6:49 AM 15.8 °F 10.2 °F 12.2 °F 86% 30.07 in 2.0 mi NW 3.5 mph - N/A Snow Light Snow
7:09 AM 14.0 °F 6.5 °F 10.4 °F 86% 30.08 in 7.0 mi NNW 4.6 mph - N/A Snow Light Snow
7:30 AM 12.2 °F 6.1 °F 8.6 °F 85% 30.08 in 7.0 mi NNE 3.5 mph - N/A Snow Light Snow
7:49 AM 12.2 °F 6.1 °F 8.6 °F 85% 30.08 in 10.0 mi North 3.5 mph - N/A Snow Light Snow
8:09 AM 12.2 °F - 10.4 °F 92% 30.10 in 10.0 mi Calm Calm - N/A Snow Light Snow
8:30 AM 12.2 °F - 10.4 °F 92% 30.10 in 4.0 mi Calm Calm - N/A Snow Light Snow
8:50 AM 12.2 °F 6.1 °F 10.4 °F 92% 30.10 in 5.0 mi NNW 3.5 mph - N/A Snow Light Snow
9:09 AM 12.2 °F - 8.6 °F 85% 30.10 in 5.0 mi Calm Calm - N/A Snow Light Snow
9:30 AM 12.2 °F 4.3 °F 8.6 °F 85% 30.11 in 7.0 mi NW 4.6 mph - N/A Snow Light Snow
9:50 AM 12.2 °F 6.1 °F 8.6 °F 85% 30.12 in 5.0 mi WNW 3.5 mph - N/A Snow Light Snow
10:09 AM 12.2 °F 1.7 °F 8.6 °F 85% 30.12 in 2.0 mi West 6.9 mph - N/A Snow Light Snow
10:30 AM 12.2 °F 6.1 °F 8.6 °F 85% 30.13 in 7.0 mi NNW 3.5 mph - N/A Snow Light Snow
10:50 AM 12.2 °F 6.1 °F 6.8 °F 79% 30.12 in 10.0 mi West 3.5 mph - N/A Snow Light Snow
11:09 AM 14.0 °F - 8.6 °F 79% 30.11 in 10.0 mi Calm Calm - N/A   Clear
11:30 AM 14.0 °F - 8.6 °F 79% 30.11 in 10.0 mi Calm Calm - N/A   Clear
11:50 AM 15.8 °F - 8.6 °F 73% 30.10 in 10.0 mi Calm Calm - N/A   Clear
12:09 PM 15.8 °F 10.2 °F 8.6 °F 73% 30.10 in 10.0 mi WNW 3.5 mph - N/A   Clear
12:30 PM 15.8 °F 10.2 °F 8.6 °F 73% 30.10 in 10.0 mi WNW 3.5 mph - N/A   Clear
12:50 PM 17.6 °F - 8.6 °F 68% 30.09 in 10.0 mi Calm Calm - N/A   Clear
1:09 PM 17.6 °F - 8.6 °F 68% 30.09 in 10.0 mi Calm Calm - N/A   Clear
1:30 PM 17.6 °F - 8.6 °F 68% 30.09 in 10.0 mi Calm Calm - N/A   Clear
1:49 PM 19.4 °F - 8.6 °F 63% 30.09 in 10.0 mi Calm Calm - N/A   Clear
2:09 PM 19.4 °F - 8.6 °F 63% 30.09 in 10.0 mi Calm Calm - N/A   Clear
2:30 PM 19.4 °F - 8.6 °F 63% 30.09 in 10.0 mi Calm Calm - N/A   Clear
2:50 PM 21.2 °F 14.9 °F 8.6 °F 58% 30.10 in 10.0 mi SW 4.6 mph - N/A   Clear
3:09 PM 21.2 °F 14.9 °F 8.6 °F 58% 30.09 in 10.0 mi SSE 4.6 mph - N/A   Clear
3:30 PM 21.2 °F 14.9 °F 8.6 °F 58% 30.10 in 10.0 mi SSW 4.6 mph - N/A   Clear
3:50 PM 21.2 °F 14.9 °F 8.6 °F 58% 30.09 in 10.0 mi South 4.6 mph - N/A   Clear
4:09 PM 19.4 °F 10.4 °F 8.6 °F 63% 30.09 in 10.0 mi SSW 6.9 mph - N/A   Clear
4:30 PM 17.6 °F 10.7 °F 6.8 °F 63% 30.07 in 10.0 mi South 4.6 mph - N/A   Clear
4:49 PM 17.6 °F 10.7 °F 8.6 °F 68% 30.07 in 10.0 mi SSW 4.6 mph - N/A   Clear
5:10 PM 17.6 °F - 8.6 °F 68% 30.07 in 10.0 mi Calm Calm - N/A   Clear
5:30 PM 15.8 °F - 8.6 °F 73% 30.06 in 10.0 mi Calm Calm - N/A   Clear
5:49 PM 12.2 °F - 6.8 °F 79% 30.05 in 10.0 mi Calm Calm - N/A   Clear
6:10 PM 12.2 °F - 6.8 °F 79% 30.05 in 10.0 mi Calm Calm - N/A   Clear
6:30 PM 10.4 °F - 5.0 °F 79% 30.04 in 10.0 mi Calm Calm - N/A   Clear
6:49 PM 10.4 °F - 5.0 °F 79% 30.03 in 10.0 mi Calm Calm - N/A   Clear
7:10 PM 8.6 °F - 3.2 °F 79% 30.03 in 10.0 mi Calm Calm - N/A   Clear
7:30 PM 10.4 °F - 5.0 °F 79% 30.03 in 10.0 mi Calm Calm - N/A   Clear
7:49 PM 8.6 °F - 3.2 °F 79% 30.02 in 10.0 mi Calm Calm - N/A   Clear
8:10 PM 6.8 °F - 3.2 °F 85% 30.02 in 10.0 mi Calm Calm - N/A   Clear
8:30 PM 10.4 °F 4.0 °F 5.0 °F 79% 30.00 in 10.0 mi South 3.5 mph - N/A   Clear
9:10 PM 14.0 °F 5.1 °F 5.0 °F 67% 29.98 in 10.0 mi SSE 5.8 mph - N/A   Clear
9:30 PM 12.2 °F 2.9 °F 5.0 °F 73% 29.96 in 10.0 mi SSE 5.8 mph - N/A   Clear
9:49 PM 12.2 °F 6.1 °F 5.0 °F 73% 29.97 in 10.0 mi South 3.5 mph - N/A   Clear
10:29 PM 12.2 °F 2.9 °F 5.0 °F 73% 29.93 in 10.0 mi SSE 5.8 mph - N/A   Clear
10:49 PM 14.0 °F 6.5 °F 6.8 °F 73% 29.91 in 10.0 mi SE 4.6 mph - N/A   Clear
11:29 PM 15.8 °F 8.6 °F 8.6 °F 73% 29.89 in 10.0 mi South 4.6 mph - N/A   Clear
11:49 PM 15.8 °F 7.2 °F 8.6 °F 73% 29.87 in 10.0 mi South 5.8 mph - N/A   Clear